Time,TemperatureF,DewpointF,PressureIn,WindDirection,WindDirectionDegrees,WindSpeedMPH,WindSpeedGustMPH,Humidity,HourlyPrecipIn,Conditions,Clouds,dailyrainin,SoftwareType,DateUTC
2013-10-26 08:23:00,29.8,25.9,29.01,ENE,59,1.0,1.0,85,0.00,,,0.00,meteohub,2013-10-26 12:23:00,
2013-10-26 08:26:00,30.0,26.1,29.01,ENE,59,0.0,1.0,85,0.00,,,0.00,meteohub,2013-10-26 12:26:00,
2013-10-26 08:27:00,30.0,26.1,29.01,ENE,72,0.0,1.0,85,0.00,,,0.00,meteohub,2013-10-26 12:27:00,
2013-10-26 08:32:00,30.6,26.6,29.01,ESE,122,2.0,2.0,85,0.00,,,0.00,meteohub,2013-10-26 12:32:00,
2013-10-26 08:35:00,30.9,27.0,29.01,SSE,150,0.0,1.0,85,0.00,,,0.00,meteohub,2013-10-26 12:35:00,
2013-10-26 08:37:00,31.1,26.8,29.01,SE,146,0.0,3.0,84,0.00,,,0.00,meteohub,2013-10-26 12:37:00,
2013-10-26 08:42:00,31.8,27.9,29.00,ESE,119,0.0,3.0,85,0.00,,,0.00,meteohub,2013-10-26 12:42:00,
2013-10-26 08:47:00,32.5,28.0,29.00,SE,126,0.0,3.0,83,0.00,,,0.00,meteohub,2013-10-26 12:47:00,
2013-10-26 08:52:00,32.7,27.5,29.00,SSE,153,0.0,2.0,81,0.00,,,0.00,meteohub,2013-10-26 12:52:00,
2013-10-26 08:57:00,33.3,27.7,29.00,South,169,0.0,2.0,80,0.00,,,0.00,meteohub,2013-10-26 12:57:00,
2013-10-26 09:02:00,33.6,27.9,29.00,South,171,0.0,2.0,79,0.00,,,0.00,meteohub,2013-10-26 13:02:00,
2013-10-26 09:05:00,34.2,28.0,29.00,South,170,0.0,2.0,78,0.00,,,0.00,meteohub,2013-10-26 13:05:00,
2013-10-26 09:11:00,34.7,28.2,29.00,SE,146,1.0,2.0,77,0.00,,,0.00,meteohub,2013-10-26 13:11:00,
2013-10-26 09:17:00,35.2,28.4,29.01,SE,129,0.0,2.0,76,0.00,,,0.00,meteohub,2013-10-26 13:17:00,
2013-10-26 09:22:00,35.6,28.4,29.00,SE,129,0.0,1.0,75,0.00,,,0.00,meteohub,2013-10-26 13:22:00,
2013-10-26 09:27:00,36.3,29.1,29.00,SW,234,1.0,1.0,75,0.00,,,0.00,meteohub,2013-10-26 13:27:00,
2013-10-26 09:32:00,36.9,30.0,29.00,SE,132,0.0,2.0,76,0.00,,,0.00,meteohub,2013-10-26 13:32:00,
2013-10-26 09:37:00,37.6,30.4,29.00,South,175,1.0,2.0,75,0.00,,,0.00,meteohub,2013-10-26 13:37:00,
2013-10-26 09:42:00,38.5,31.3,29.00,WSW,252,0.0,3.0,75,0.00,,,0.00,meteohub,2013-10-26 13:42:00,
2013-10-26 09:47:00,39.0,30.4,28.99,ESE,122,2.0,3.0,71,0.00,,,0.00,meteohub,2013-10-26 13:47:00,
2013-10-26 09:52:00,39.6,31.6,28.99,SSW,212,0.0,4.0,73,0.00,,,0.00,meteohub,2013-10-26 13:52:00,
2013-10-26 09:57:00,39.9,30.6,28.99,East,94,0.0,4.0,69,0.00,,,0.00,meteohub,2013-10-26 13:57:00,
2013-10-26 10:02:00,40.5,31.1,28.99,East,95,5.0,5.0,69,0.00,,,0.00,meteohub,2013-10-26 14:02:00,
2013-10-26 10:07:00,40.8,30.0,28.99,South,177,2.0,5.0,65,0.00,,,0.00,meteohub,2013-10-26 14:07:00,
2013-10-26 10:12:00,41.2,30.4,28.98,SSE,165,5.0,5.0,65,0.00,,,0.00,meteohub,2013-10-26 14:12:00,
2013-10-26 10:17:00,41.4,29.3,28.98,NW,309,1.0,7.0,62,0.00,,,0.00,meteohub,2013-10-26 14:17:00,
2013-10-26 10:24:00,42.1,29.7,28.98,East,97,6.0,9.0,61,0.00,,,0.00,meteohub,2013-10-26 14:24:00,
2013-10-26 10:30:00,42.4,29.1,28.97,SSW,205,1.0,9.0,59,0.00,,,0.00,meteohub,2013-10-26 14:30:00,
2013-10-26 10:36:00,42.6,29.3,28.97,SSW,199,4.0,7.0,59,0.00,,,0.00,meteohub,2013-10-26 14:36:00,
2013-10-26 10:42:00,43.2,28.9,28.97,East,88,7.0,9.0,57,0.00,,,0.00,meteohub,2013-10-26 14:42:00,
2013-10-26 10:47:00,43.5,29.7,28.96,NNW,335,2.0,9.0,58,0.00,,,0.00,meteohub,2013-10-26 14:47:00,
2013-10-26 10:52:00,44.1,28.4,28.96,WNW,290,2.0,9.0,54,0.00,,,0.00,meteohub,2013-10-26 14:52:00,